PGT48XF LTFJ-LROP

Flight info

Callsign PGT48XF
Flight time 0h 56m
Altitude 38000
Route IBLAX P727 BGS L622 KOMAN L622 OBUGA
Aircraft A20N/M-SDE2E3FGHIRWXY/LB1

Departure

Time 2026-04-30 07:19
Airport Istanbul Sabiha Gökçen International Airport (LTFJ)

Arrival

Time 2026-04-30 08:15
Airport Bucharest Henri Coandă International Airport (LROP)
Time Latitude Longitude Altitude Speed Heading
2026-04-30 06:51 40.90578 29.32038 320 ft 0 kts 154°
2026-04-30 07:09 40.90584 29.32034 320 ft 2 kts 153°
2026-04-30 07:10 40.90598 29.32025 319 ft 2 kts 154°
2026-04-30 07:10 40.90613 29.32015 320 ft 2 kts 154°
2026-04-30 07:10 40.90628 29.32006 319 ft 2 kts 154°
2026-04-30 07:10 40.90643 29.31996 319 ft 2 kts 171°
2026-04-30 07:11 40.90656 29.32004 317 ft 2 kts 241°
2026-04-30 07:11 40.90663 29.32020 316 ft 1 kts 245°
2026-04-30 07:11 40.90663 29.32021 319 ft 0 kts 245°
2026-04-30 07:13 40.90655 29.32000 319 ft 5 kts 244°
2026-04-30 07:13 40.90631 29.31941 320 ft 9 kts 229°
2026-04-30 07:13 40.90558 29.31953 320 ft 15 kts 152°
2026-04-30 07:14 40.90458 29.31983 320 ft 16 kts 222°
2026-04-30 07:14 40.90402 29.31838 320 ft 20 kts 244°
2026-04-30 07:14 40.90338 29.31664 319 ft 22 kts 244°
2026-04-30 07:14 40.90266 29.31468 320 ft 25 kts 244°
2026-04-30 07:15 40.90186 29.31251 320 ft 27 kts 244°
2026-04-30 07:15 40.90100 29.31020 320 ft 29 kts 244°
2026-04-30 07:15 40.90015 29.30787 320 ft 29 kts 244°
2026-04-30 07:15 40.89925 29.30542 321 ft 30 kts 244°
2026-04-30 07:16 40.89830 29.30282 321 ft 32 kts 244°
2026-04-30 07:16 40.89735 29.30026 320 ft 31 kts 244°
2026-04-30 07:16 40.89638 29.29762 320 ft 32 kts 244°
2026-04-30 07:16 40.89550 29.29523 320 ft 23 kts 244°
2026-04-30 07:17 40.89481 29.29334 320 ft 13 kts 244°
2026-04-30 07:17 40.89406 29.29251 319 ft 16 kts 177°
2026-04-30 07:17 40.89285 29.29379 314 ft 7 kts 66°
2026-04-30 07:18 40.89307 29.29434 316 ft 8 kts 64°
2026-04-30 07:18 40.89405 29.29698 320 ft 64 kts 64°
2026-04-30 07:18 40.89688 29.30469 321 ft 120 kts 64°
2026-04-30 07:18 40.90085 29.31571 642 ft 133 kts 62°
2026-04-30 07:19 40.90483 29.32664 1216 ft 134 kts 63°
2026-04-30 07:19 40.90906 29.33802 1740 ft 143 kts 64°
2026-04-30 07:19 40.91360 29.35024 2191 ft 155 kts 64°
2026-04-30 07:19 40.91864 29.36385 2475 ft 175 kts 64°
2026-04-30 07:20 40.92426 29.37911 2735 ft 195 kts 64°
2026-04-30 07:20 40.93052 29.39614 2913 ft 218 kts 64°
2026-04-30 07:20 40.93745 29.41504 3183 ft 238 kts 64°
2026-04-30 07:20 40.94488 29.43531 3524 ft 255 kts 64°
2026-04-30 07:21 40.95283 29.45700 3966 ft 264 kts 64°
2026-04-30 07:21 40.96088 29.47897 4534 ft 268 kts 64°
2026-04-30 07:21 40.96897 29.50106 5047 ft 272 kts 64°
2026-04-30 07:21 40.97732 29.52389 5540 ft 277 kts 64°
2026-04-30 07:22 40.99420 29.57010 6510 ft 283 kts 64°
2026-04-30 07:22 41.00395 29.59320 6901 ft 285 kts 49°
2026-04-30 07:22 41.01941 29.60920 7271 ft 284 kts 22°
2026-04-30 07:23 41.03851 29.61451 7661 ft 282 kts 355°
2026-04-30 07:23 41.05764 29.60955 8037 ft 280 kts 341°
2026-04-30 07:23 41.07615 29.60148 8416 ft 281 kts 338°
2026-04-30 07:23 41.09471 29.59307 8864 ft 283 kts 338°
2026-04-30 07:24 41.11366 29.58497 9677 ft 286 kts 339°
2026-04-30 07:24 41.13282 29.57727 10560 ft 293 kts 340°
2026-04-30 07:24 41.15317 29.56933 10913 ft 317 kts 341°
2026-04-30 07:24 41.17484 29.56104 11287 ft 337 kts 341°
2026-04-30 07:25 41.19758 29.55246 12074 ft 342 kts 341°
2026-04-30 07:25 41.21921 29.53979 12922 ft 340 kts 322°
2026-04-30 07:25 41.23622 29.51814 13765 ft 340 kts 307°
2026-04-30 07:25 41.25057 29.49295 14529 ft 343 kts 303°
2026-04-30 07:26 41.26456 29.46724 15341 ft 344 kts 304°
2026-04-30 07:26 41.27905 29.44165 16143 ft 347 kts 304°
2026-04-30 07:26 41.29403 29.41640 16967 ft 349 kts 306°
2026-04-30 07:26 41.30940 29.39119 17706 ft 352 kts 306°
2026-04-30 07:27 41.32501 29.36594 18465 ft 355 kts 306°
2026-04-30 07:27 41.34078 29.34055 19116 ft 357 kts 306°
2026-04-30 07:27 41.35666 29.31498 19791 ft 359 kts 306°
2026-04-30 07:27 41.37260 29.28927 20453 ft 361 kts 306°
2026-04-30 07:28 41.38861 29.26340 21101 ft 363 kts 306°
2026-04-30 07:28 41.40474 29.23732 21753 ft 366 kts 306°
2026-04-30 07:28 41.42094 29.21107 22405 ft 368 kts 305°
2026-04-30 07:28 41.43723 29.18467 23044 ft 370 kts 305°
2026-04-30 07:29 41.45365 29.15802 23666 ft 373 kts 305°
2026-04-30 07:29 41.47021 29.13112 24175 ft 376 kts 305°
2026-04-30 07:29 41.48687 29.10403 24668 ft 379 kts 305°
2026-04-30 07:29 41.50344 29.07707 25149 ft 381 kts 306°
2026-04-30 07:30 41.53735 29.02181 26092 ft 387 kts 306°
2026-04-30 07:30 41.55444 28.99393 26546 ft 390 kts 306°
2026-04-30 07:30 41.57163 28.96586 27043 ft 391 kts 306°
2026-04-30 07:31 41.58895 28.93754 27478 ft 394 kts 306°
2026-04-30 07:31 41.60634 28.90908 27891 ft 397 kts 306°
2026-04-30 07:31 41.62386 28.88039 28303 ft 400 kts 306°
2026-04-30 07:31 41.64152 28.85144 28703 ft 402 kts 306°
2026-04-30 07:32 41.65325 28.83220 28959 ft 404 kts 306°
2026-04-30 07:32 41.67109 28.80290 29332 ft 406 kts 306°
2026-04-30 07:32 41.68899 28.77349 29686 ft 409 kts 306°
2026-04-30 07:32 41.71288 28.73419 30209 ft 411 kts 306°
2026-04-30 07:33 41.73098 28.70437 30526 ft 414 kts 306°
2026-04-30 07:33 41.74303 28.68450 30735 ft 415 kts 306°
2026-04-30 07:33 41.76124 28.65445 31051 ft 417 kts 305°
2026-04-30 07:33 41.77959 28.62414 31388 ft 418 kts 305°
2026-04-30 07:34 41.79792 28.59384 31792 ft 418 kts 305°
2026-04-30 07:34 41.82239 28.55335 32352 ft 417 kts 305°
2026-04-30 07:34 41.83446 28.53337 32627 ft 416 kts 305°
2026-04-30 07:34 41.85267 28.50317 33080 ft 414 kts 305°
2026-04-30 07:35 41.87069 28.47328 33531 ft 412 kts 305°
2026-04-30 07:35 41.88868 28.44338 33910 ft 411 kts 305°
2026-04-30 07:35 41.90662 28.41353 34264 ft 410 kts 305°
2026-04-30 07:35 41.92446 28.38384 34691 ft 407 kts 304°
2026-04-30 07:36 41.94221 28.35425 35019 ft 406 kts 304°
2026-04-30 07:36 41.95991 28.32472 35285 ft 406 kts 304°
2026-04-30 07:36 41.97759 28.29515 35551 ft 405 kts 304°
2026-04-30 07:36 41.99395 28.26450 35816 ft 403 kts 300°
2026-04-30 07:37 42.00960 28.23321 36077 ft 403 kts 300°
2026-04-30 07:37 42.02535 28.20209 36335 ft 403 kts 301°
2026-04-30 07:37 42.04092 28.17136 36572 ft 402 kts 301°
2026-04-30 07:37 42.05663 28.14030 36813 ft 402 kts 300°
2026-04-30 07:38 42.07234 28.10917 37070 ft 402 kts 300°
2026-04-30 07:38 42.08800 28.07805 37295 ft 401 kts 300°
2026-04-30 07:38 42.10367 28.04688 37536 ft 401 kts 300°
2026-04-30 07:38 42.11929 28.01576 37783 ft 401 kts 300°
2026-04-30 07:39 42.13491 27.98463 37997 ft 400 kts 300°
2026-04-30 07:39 42.15048 27.95354 38172 ft 400 kts 300°
2026-04-30 07:39 42.16608 27.92237 38177 ft 400 kts 300°
2026-04-30 07:40 42.19736 27.86055 38172 ft 400 kts 303°
2026-04-30 07:40 42.23564 27.80541 38173 ft 407 kts 315°
2026-04-30 07:41 42.28233 27.76202 38192 ft 414 kts 326°
2026-04-30 07:41 42.33318 27.72501 38177 ft 415 kts 325°
2026-04-30 07:42 42.38399 27.68768 38184 ft 415 kts 325°
2026-04-30 07:42 42.43488 27.65028 38189 ft 416 kts 325°
2026-04-30 07:43 42.48578 27.61284 38190 ft 416 kts 325°
2026-04-30 07:43 42.53653 27.57547 38182 ft 415 kts 325°
2026-04-30 07:44 42.58664 27.53741 38185 ft 413 kts 321°
2026-04-30 07:44 42.63333 27.49255 38184 ft 410 kts 318°
2026-04-30 07:45 42.67969 27.44719 38195 ft 410 kts 318°
2026-04-30 07:45 42.72591 27.40186 38176 ft 408 kts 318°
2026-04-30 07:46 42.77189 27.35656 38172 ft 407 kts 318°
2026-04-30 07:46 42.81794 27.31106 38186 ft 411 kts 318°
2026-04-30 07:47 42.86393 27.26557 38182 ft 411 kts 318°
2026-04-30 07:47 42.91012 27.21980 38185 ft 410 kts 318°
2026-04-30 07:48 42.95626 27.17397 38186 ft 410 kts 318°
2026-04-30 07:48 43.00246 27.12801 38190 ft 410 kts 318°
2026-04-30 07:49 43.04864 27.08199 38213 ft 411 kts 317°
2026-04-30 07:49 43.09483 27.03586 38194 ft 411 kts 317°
2026-04-30 07:50 43.14169 26.99167 38196 ft 413 kts 320°
2026-04-30 07:50 43.18971 26.94849 38192 ft 412 kts 320°
2026-04-30 07:51 43.23755 26.90513 38144 ft 413 kts 320°
2026-04-30 07:51 43.26154 26.88337 37875 ft 412 kts 320°
2026-04-30 07:51 43.28543 26.86168 37629 ft 411 kts 320°
2026-04-30 07:51 43.30924 26.84001 37391 ft 411 kts 320°
2026-04-30 07:52 43.33311 26.81822 36947 ft 413 kts 319°
2026-04-30 07:52 43.35714 26.79627 36278 ft 415 kts 319°
2026-04-30 07:52 43.38124 26.77426 35577 ft 416 kts 319°
2026-04-30 07:52 43.40540 26.75219 34858 ft 417 kts 318°
2026-04-30 07:53 43.42955 26.73011 34101 ft 418 kts 318°
2026-04-30 07:53 43.45366 26.70802 33371 ft 415 kts 318°
2026-04-30 07:53 43.47766 26.68602 32635 ft 413 kts 318°
2026-04-30 07:53 43.50157 26.66407 31903 ft 412 kts 318°
2026-04-30 07:54 43.52530 26.64226 31305 ft 407 kts 318°
2026-04-30 07:54 43.54840 26.62104 30814 ft 400 kts 318°
2026-04-30 07:54 43.57144 26.59983 30290 ft 395 kts 318°
2026-04-30 07:54 43.59410 26.57896 29752 ft 388 kts 318°
2026-04-30 07:55 43.61634 26.55844 29237 ft 381 kts 318°
2026-04-30 07:55 43.63815 26.53828 28753 ft 374 kts 318°
2026-04-30 07:55 43.65958 26.51845 28274 ft 368 kts 318°
2026-04-30 07:55 43.68067 26.49891 27804 ft 362 kts 318°
2026-04-30 07:56 43.70143 26.47966 27343 ft 357 kts 318°
2026-04-30 07:56 43.72248 26.46001 26867 ft 376 kts 318°
2026-04-30 07:56 43.74459 26.43927 26369 ft 389 kts 318°
2026-04-30 07:56 43.76718 26.41825 25860 ft 393 kts 319°
2026-04-30 07:57 43.78977 26.39734 25322 ft 386 kts 319°
2026-04-30 07:57 43.81142 26.37661 24776 ft 373 kts 316°
2026-04-30 07:57 43.83188 26.35463 24075 ft 373 kts 314°
2026-04-30 07:57 43.85208 26.33209 23293 ft 372 kts 314°
2026-04-30 07:58 43.87200 26.30988 22510 ft 374 kts 315°
2026-04-30 07:58 43.89267 26.28708 21698 ft 375 kts 315°
2026-04-30 07:58 43.91291 26.26495 20938 ft 376 kts 316°
2026-04-30 07:58 43.93352 26.24253 20186 ft 376 kts 316°
2026-04-30 07:59 43.95411 26.22016 19455 ft 376 kts 316°
2026-04-30 07:59 43.97469 26.19780 18735 ft 375 kts 317°
2026-04-30 07:59 43.99523 26.17547 17955 ft 375 kts 317°
2026-04-30 08:00 44.03622 26.13086 16359 ft 373 kts 317°
2026-04-30 08:00 44.05660 26.10865 15609 ft 372 kts 317°
2026-04-30 08:00 44.07687 26.08654 14876 ft 370 kts 317°
2026-04-30 08:00 44.09711 26.06443 14150 ft 368 kts 318°
2026-04-30 08:01 44.11723 26.04243 13419 ft 367 kts 318°
2026-04-30 08:01 44.13681 26.02104 13094 ft 347 kts 318°
2026-04-30 08:01 44.15527 26.00092 12886 ft 327 kts 318°
2026-04-30 08:01 44.17239 25.98221 12656 ft 308 kts 318°
2026-04-30 08:02 44.20499 25.94639 12095 ft 285 kts 318°
2026-04-30 08:02 44.22019 25.92974 11905 ft 273 kts 317°
2026-04-30 08:03 44.24995 25.89688 10677 ft 273 kts 320°
2026-04-30 08:03 44.27961 25.86417 9954 ft 272 kts 320°
2026-04-30 08:03 44.29447 25.84779 9592 ft 272 kts 320°
2026-04-30 08:04 44.30942 25.83131 9246 ft 276 kts 320°
2026-04-30 08:04 44.32452 25.81464 8922 ft 274 kts 321°
2026-04-30 08:04 44.33908 25.79859 8755 ft 259 kts 320°
2026-04-30 08:04 44.35301 25.78326 8438 ft 251 kts 320°
2026-04-30 08:05 44.36672 25.76815 8049 ft 251 kts 320°
2026-04-30 08:05 44.38033 25.75314 7670 ft 253 kts 320°
2026-04-30 08:05 44.39430 25.73768 7247 ft 258 kts 320°
2026-04-30 08:05 44.40841 25.72198 6827 ft 261 kts 321°
2026-04-30 08:06 44.42272 25.70611 6378 ft 264 kts 322°
2026-04-30 08:06 44.43720 25.69003 5972 ft 267 kts 322°
2026-04-30 08:06 44.45167 25.67395 5631 ft 262 kts 322°
2026-04-30 08:06 44.46577 25.65827 5283 ft 256 kts 323°
2026-04-30 08:07 44.48006 25.64413 4928 ft 246 kts 338°
2026-04-30 08:07 44.49592 25.63876 4572 ft 236 kts
2026-04-30 08:07 44.51149 25.64312 4365 ft 223 kts 30°
2026-04-30 08:07 44.52391 25.65506 4106 ft 212 kts 51°
2026-04-30 08:08 44.53171 25.67174 3979 ft 200 kts 71°
2026-04-30 08:08 44.53478 25.69077 3976 ft 198 kts 85°
2026-04-30 08:08 44.53610 25.70978 3980 ft 196 kts 84°
2026-04-30 08:08 44.53757 25.72876 3981 ft 196 kts 84°
2026-04-30 08:09 44.53909 25.74777 3980 ft 196 kts 84°
2026-04-30 08:09 44.54062 25.76688 3984 ft 197 kts 84°
2026-04-30 08:09 44.54218 25.78587 3914 ft 195 kts 83°
2026-04-30 08:09 44.54397 25.80459 3798 ft 191 kts 83°
2026-04-30 08:10 44.54560 25.82276 3637 ft 186 kts 84°
2026-04-30 08:10 44.54631 25.83222 3538 ft 184 kts 84°
2026-04-30 08:10 44.54773 25.85061 3300 ft 181 kts 83°
2026-04-30 08:10 44.54901 25.86775 3108 ft 173 kts 83°
2026-04-30 08:11 44.55022 25.88388 2913 ft 161 kts 83°
2026-04-30 08:11 44.55136 25.89902 2712 ft 152 kts 82°
2026-04-30 08:11 44.55243 25.91308 2519 ft 138 kts 82°
2026-04-30 08:11 44.55341 25.92631 2349 ft 137 kts 81°
2026-04-30 08:12 44.55440 25.93959 2178 ft 137 kts 81°
2026-04-30 08:12 44.55540 25.95279 1989 ft 137 kts 80°
2026-04-30 08:12 44.55640 25.96618 1831 ft 132 kts 80°
2026-04-30 08:12 44.55726 25.97805 1665 ft 113 kts 79°
2026-04-30 08:13 44.55810 25.98880 1525 ft 112 kts 78°
2026-04-30 08:13 44.55893 25.99986 1383 ft 114 kts 81°
2026-04-30 08:13 44.55973 26.01082 1222 ft 113 kts 79°
2026-04-30 08:13 44.56059 26.02185 1080 ft 115 kts 79°
2026-04-30 08:14 44.56144 26.03319 933 ft 119 kts 79°
2026-04-30 08:14 44.56228 26.04459 777 ft 117 kts 79°
2026-04-30 08:14 44.56312 26.05600 620 ft 114 kts 80°
2026-04-30 08:14 44.56378 26.06671 492 ft 110 kts 78°
2026-04-30 08:15 44.56470 26.07774 367 ft 113 kts 80°
2026-04-30 08:15 44.56549 26.08792 322 ft 85 kts 83°
2026-04-30 08:15 44.56593 26.09393 319 ft 50 kts 83°
2026-04-30 08:15 44.56628 26.09817 321 ft 39 kts 84°
2026-04-30 08:16 44.56653 26.10177 322 ft 39 kts 83°
2026-04-30 08:16 44.56686 26.10589 322 ft 40 kts 83°
2026-04-30 08:16 44.56739 26.10766 322 ft 11 kts 14°
2026-04-30 08:16 44.56839 26.10754 320 ft 17 kts 354°
2026-04-30 08:17 44.56958 26.10734 321 ft 17 kts 349°
2026-04-30 08:17 44.57037 26.10632 322 ft 16 kts 300°
2026-04-30 08:17 44.57067 26.10502 322 ft 14 kts 265°
2026-04-30 08:17 44.57056 26.10357 322 ft 16 kts 264°
2026-04-30 08:18 44.57043 26.10194 321 ft 18 kts 264°
2026-04-30 08:18 44.57029 26.10012 322 ft 20 kts 264°
2026-04-30 08:18 44.57015 26.09831 322 ft 16 kts 264°
2026-04-30 08:18 44.56988 26.09803 322 ft 5 kts 175°
2026-04-30 08:19 44.56959 26.09808 320 ft 1 kts 173°